Location: Ipswich
(52.0579°N, 1.1528°E)
Time: 21:34:46
(UTC+01:00)

ISS - Pass Details

Date: 09 May 2026
Orbit: 414 x 424 km, 51.6° (Epoch: 15 May)

Event Time Altitude Azimuth Distance (km) Brightness Sun altitude
Exits shadow 02:24:02 17° 128° (SE) 1,135 -1.7 -17.8°
Drops below altitude 10° 02:24:58 10° 123° (ESE) 1,496 -1.1 -17.7°
Sets 02:27:06 0° 118° (ESE) 2,360 0.0 -17.6°
